Location: Gaast
(52.9002°N, 5.8891°E)
Time: 03:07:28
(UTC+00:00)

COSMOS 2406 - Pass Details

Date: 18 November 2025
Orbit: 845 x 859 km, 71.0° (Epoch: 15 December)

Event Time Altitude Azimuth Distance (km) Brightness Sun altitude
Rises 18:05:33 0° 327° (NNW) 3,418 6.8 -21.9°
Reaches altitude 10° 18:08:00 10° 325° (NW) 2,480 6.0 -22.3°
Maximum altitude 18:13:39 69° 243° (WSW) 909 3.5 -23.1°
Enters shadow 18:19:05 11° 162° (SSE) 2,396 5.4 -24.0°
